Meath Environmental Platform

Observations for Trim Patrick St

Time AQI Temp °C Hum % Pres Pa CO μg/m³ H₂S μg/m³ NO μg/m³ NO₂ μg/m³ O₃ μg/m³ SO₂ μg/m³ PM1 μg/m³ PM2.5 μg/m³ PM10 μg/m³
Saturday 8 August 2026
02:02 2 14.5 73 38,460 0.22 3.82 3.29 21.28 16.44 0 4.57 8.56 9.41
02:01 2 14.5 72 38,460 0.23 3.87 3.22 32.18 15.44 0 4.57 9.3 10.23
02:00 2 14.5 73 38,460 0.21 2.29 3.19 21.3 15.48 0 3.71 7.84 8.62
01:59 2 14.5 73 38,460 0.22 3.48 3.31 28.71 17.03 0 4.57 8.57 9.42
01:58 2 14.5 73 38,460 0.22 2.18 3.31 16.6 18.67 0 4.57 8.56 9.41
01:57 2 14.5 72 38,460 0.22 2.39 3.31 28.22 12.15 0 5.43 10.74 11.81
01:56 2 14.5 72 38,460 0.23 1.74 3.32 13.82 18.94 0 4.57 8.6 9.46
01:55 2 14.5 72 38,460 0.22 2.39 3.32 15.51 15.15 0 4.57 9.3 10.23
01:54 2 14.5 72 38,460 0.2 2.96 3.31 23.77 17.23 0 4.57 9.3 10.23
01:53 2 14.5 71 38,460 0.22 2.75 3.32 24.31 18.48 0 5.43 10.15 11.17
01:52 2 14.5 70 38,460 0.22 1.12 3.31 21.5 15.83 0 4.57 8.79 9.67
01:51 2 14.5 68 38,460 0.22 2 3.28 16.85 13.88 0 4.57 8.93 9.82
01:50 2 14.5 68 38,460 0.22 3.56 3.28 24.21 15.32 0 6.29 11.09 12.2
01:49 2 14.5 71 38,460 0.21 4.21 3.32 27.01 19.51 0 5.43 10.15 11.16
01:48 2 14.5 72 38,460 0.23 4.03 3.26 22.46 11.34 0 5.43 9.29 10.22
01:47 2 14.5 72 38,460 0.22 5.74 3.29 31.65 20.08 0 6.29 10.06 11.07
01:46 2 14.5 72 38,460 0.23 5.01 3.28 33.75 16.02 0 4.57 8.65 9.51
01:45 2 14.5 72 38,460 0.25 5.3 3.32 39.34 13.51 0 4.57 10.02 11.02
01:44 2 14.5 73 38,460 0.25 2.36 3.31 30.45 12.73 0 4.57 8.55 9.41
01:43 2 14.5 73 38,460 0.25 1.45 3.23 20.46 15.38 0 5.43 8.54 9.39